Weather History for Dayton, OH

Change the Weather History Date:

Tuesday, March 25, 2014

  Actual Average Record
Temperature  
Mean Temperature 27 °F 44 °F  
Max Temperature 35 °F 53 °F 84 °F (1929)
Min Temperature 19 °F 34 °F 1 °F (1974)
Degree Days  
Heating Degree Days 38 21  
Month to date heating degree days 730 644  
Since 1 July heating degree days 5329 4919  
Cooling Degree Days 0 0  
Month to date cooling degree days 0 0  
Year to date cooling degree days 0 0  
Moisture  
Dew Point 21 °F    
Average Humidity 66    
Maximum Humidity 85    
Minimum Humidity 47    
Precipitation  
Precipitation 0.01 in 0.12 in 2.27 in (1913)
Month to date precipitation 1.27 2.59  
Year to date precipitation 6.25 7.54  
Snow  
Snow 0.80 in 0.00 in 3.90 in (1955)
Month to date snowfall 5.8 3.0  
Since 1 July snowfall 51.2 22.3  
Snow Depth 0.00 in    
Sea Level Pressure  
Sea Level Pressure 30.05 in    
Wind  
Wind Speed 10 mph (WNW)    
Max Wind Speed 29 mph    
Max Gust Speed 37 mph    
Visibility 6 miles    
Events Fog , Snow    
T = Trace of Precipitation, MM = Missing Value Source: NWS Daily Summary

Daily Weather History Graph

Daily Weather History Graph

Search for Another Location

Airport:

Trip Planner

Search our weather history database for the weather conditions in past years. The results will help you decide how hot, cold, wet, or windy it might be!

Date:

Astronomy

Mar. 25, 2014 Rise Set
Actual Time 7:32 AM EDT 7:54 PM EDT
Civil Twilight 7:05 AM EDT 8:21 PM EDT
Nautical Twilight 6:33 AM EDT 8:52 PM EDT
Astronomical Twilight 6:00 AM EDT 9:25 PM EDT
Moon 3:52 AM EDT (3/25) 2:24 PM EDT (3/25)
Length of Visible Light 13h 15m
Length of Day
12h 21m
Waning Crescent, 32% of the Moon is Illuminated
Mar 25
Waning Crescent
Mar 30
New
Apr 7
First Quarter
Apr 15
Full
Apr 22
Last Quarter

Hourly Weather History & Observations

Time (EDT) Temp. Windchill Dew Point Humidity Pressure Visibility Wind Dir Wind Speed Gust Speed Precip Events Conditions
12:56 AM 28.0 °F - 16.0 °F 61% 30.11 in 10.0 mi Calm Calm - N/A   Overcast
1:56 AM 28.9 °F - 14.0 °F 54% 30.10 in 10.0 mi Calm Calm - N/A   Overcast
2:56 AM 28.0 °F - 15.1 °F 58% 30.10 in 10.0 mi Calm Calm - N/A   Overcast
3:56 AM 26.1 °F - 16.0 °F 66% 30.08 in 10.0 mi Calm Calm - N/A   Overcast
4:56 AM 24.1 °F - 15.1 °F 69% 30.04 in 10.0 mi Calm Calm - N/A   Mostly Cloudy
5:56 AM 25.0 °F 19.3 °F 15.1 °F 66% 30.03 in 10.0 mi WSW 4.6 mph - N/A   Scattered Clouds
6:56 AM 24.1 °F 19.7 °F 17.1 °F 75% 30.02 in 10.0 mi West 3.5 mph - N/A   Overcast
7:56 AM 25.0 °F 20.7 °F 18.0 °F 75% 30.02 in 9.0 mi WNW 3.5 mph - N/A   Overcast
8:56 AM 28.0 °F 24.2 °F 19.0 °F 69% 30.01 in 9.0 mi West 3.5 mph - N/A   Mostly Cloudy
9:56 AM 32.0 °F 25.6 °F 18.0 °F 56% 30.01 in 10.0 mi West 6.9 mph - N/A   Mostly Cloudy
10:56 AM 34.0 °F 27.2 °F 16.0 °F 48% 30.01 in 10.0 mi WSW 8.1 mph - N/A   Mostly Cloudy
11:56 AM 34.0 °F 26.0 °F 18.0 °F 52% 30.01 in 10.0 mi West 10.4 mph - N/A   Overcast
12:56 PM 35.1 °F 26.4 °F 19.9 °F 54% 30.00 in 8.0 mi West 12.7 mph - 0.00 in Snow Light Snow
1:18 PM 33.8 °F 22.8 °F 24.8 °F 70% 29.98 in 1.8 mi West 18.4 mph - 0.00 in Snow Light Snow
1:34 PM 33.8 °F 24.8 °F 28.4 °F 81% 29.97 in 2.0 mi West 12.7 mph - 0.00 in Snow Light Snow
1:43 PM 35.6 °F 26.2 °F 26.6 °F 70% 29.97 in 4.0 mi West 15.0 mph - 0.00 in Snow Light Snow
1:49 PM 33.8 °F 22.2 °F 24.8 °F 70% 29.98 in 1.8 mi West 20.7 mph 26.5 mph 0.00 in Snow Light Snow
1:56 PM 30.9 °F 18.4 °F 25.0 °F 79% 30.01 in 0.8 mi WNW 20.7 mph 31.1 mph 0.00 in Snow Light Snow
2:11 PM 30.2 °F 19.8 °F 26.6 °F 86% 29.97 in 3.0 mi WNW 13.8 mph - 0.00 in Snow Light Snow
2:18 PM 32.0 °F 19.8 °F 26.6 °F 80% 29.98 in 1.2 mi WNW 20.7 mph 26.5 mph 0.00 in Snow Light Snow
2:26 PM 30.2 °F 18.1 °F 26.6 °F 86% 29.98 in 0.8 mi NW 18.4 mph 28.8 mph 0.00 in Snow Light Snow
2:30 PM 30.2 °F 18.5 °F 26.6 °F 86% 29.98 in 1.8 mi NW 17.3 mph 28.8 mph 0.00 in Snow Light Snow
2:33 PM 30.2 °F 17.8 °F 26.6 °F 86% 29.99 in 2.5 mi NW 19.6 mph 27.6 mph 0.00 in Snow Light Snow
2:37 PM 30.2 °F 18.1 °F 26.6 °F 86% 29.99 in 1.5 mi NW 18.4 mph - 0.00 in Snow Light Snow
2:44 PM 30.2 °F 18.5 °F 26.6 °F 86% 29.98 in 0.8 mi NW 17.3 mph - 0.00 in Snow Light Snow
2:56 PM 30.0 °F 18.3 °F 26.1 °F 85% 30.03 in 0.5 mi NW 17.3 mph 29.9 mph 0.00 in Fog , Snow Snow
3:04 PM 30.2 °F 18.5 °F 24.8 °F 80% 29.98 in 4.0 mi NNW 17.3 mph - 0.01 in Snow Light Snow
3:11 PM 32.0 °F 20.1 °F 24.8 °F 75% 29.99 in 5.0 mi NW 19.6 mph 24.2 mph 0.01 in   Haze
3:14 PM 30.2 °F 17.1 °F 24.8 °F 80% 29.99 in 0.8 mi NW 21.9 mph 28.8 mph 0.01 in Snow Light Snow
3:21 PM 28.4 °F 15.4 °F 24.8 °F 86% 30.00 in 1.0 mi NW 19.6 mph 33.4 mph 0.01 in Snow Light Snow
3:30 PM 32.0 °F 21.2 °F 24.8 °F 75% 29.99 in 5.0 mi NNW 16.1 mph 25.3 mph 0.01 in Snow Light Snow
3:56 PM 32.0 °F 19.5 °F 23.0 °F 69% 30.03 in 8.0 mi NW 21.9 mph 28.8 mph 0.01 in Snow Light Snow
4:27 PM 28.4 °F 18.0 °F 23.0 °F 80% 30.01 in 4.0 mi NW 12.7 mph 31.1 mph 0.00 in Snow Light Snow
4:56 PM 33.1 °F 20.9 °F 18.0 °F 54% 30.04 in 10.0 mi WNW 21.9 mph 28.8 mph 0.00 in   Mostly Cloudy
5:56 PM 32.0 °F 19.5 °F 15.1 °F 50% 30.07 in 10.0 mi WNW 21.9 mph 29.9 mph N/A   Mostly Cloudy
6:56 PM 30.0 °F 16.9 °F 17.1 °F 59% 30.10 in 10.0 mi WNW 21.9 mph 26.5 mph 0.00 in   Mostly Cloudy
7:14 PM 26.6 °F 14.3 °F 21.2 °F 80% 30.07 in 2.0 mi NW 16.1 mph - 0.00 in Snow Light Snow
7:17 PM 26.6 °F 14.3 °F 21.2 °F 80% 30.07 in 1.0 mi NW 16.1 mph - 0.00 in Snow Light Snow
7:19 PM 26.6 °F 13.8 °F 21.2 °F 80% 30.08 in 0.5 mi NW 17.3 mph - 0.00 in Snow Snow
7:28 PM 26.6 °F 14.7 °F 21.2 °F 80% 30.08 in 4.0 mi NW 15.0 mph - 0.00 in Snow Light Snow
7:42 PM 26.6 °F 14.7 °F 17.6 °F 69% 30.08 in 10.0 mi WNW 15.0 mph 23.0 mph 0.00 in   Mostly Cloudy
7:56 PM 27.0 °F 16.1 °F 19.0 °F 72% 30.12 in 10.0 mi WNW 12.7 mph - 0.00 in   Mostly Cloudy
8:10 PM 26.6 °F 13.1 °F 19.4 °F 74% 30.10 in 2.0 mi WNW 19.6 mph 25.3 mph 0.00 in Snow Light Snow
8:18 PM 26.6 °F 14.7 °F 21.2 °F 80% 30.10 in 1.0 mi NW 15.0 mph 24.2 mph 0.00 in Snow Light Snow
8:24 PM 26.6 °F 15.7 °F 21.2 °F 80% 30.10 in 3.0 mi WNW 12.7 mph - 0.00 in Snow Light Snow
8:39 PM 24.8 °F 14.0 °F 21.2 °F 86% 30.10 in 7.0 mi WNW 11.5 mph - 0.00 in Snow Light Snow
8:56 PM 25.0 °F 15.5 °F 19.9 °F 81% 30.15 in 9.0 mi West 9.2 mph - 0.00 in   Overcast
9:56 PM 25.0 °F 15.5 °F 18.0 °F 75% 30.17 in 10.0 mi NW 9.2 mph - 0.00 in   Mostly Cloudy
10:32 PM 23.0 °F 12.4 °F 17.6 °F 80% 30.15 in 10.0 mi NW 10.4 mph - 0.00 in   Scattered Clouds
10:56 PM 23.0 °F 13.1 °F 17.1 °F 78% 30.19 in 10.0 mi NW 9.2 mph - 0.00 in   Scattered Clouds
11:56 PM 19.9 °F 12.1 °F 14.0 °F 78% 30.22 in 10.0 mi NNW 5.8 mph - N/A   Partly Cloudy